TimeMST,TemperatureF,Dew PointF,Humidity,Sea Level PressureIn,VisibilityMPH,Wind Direction,Wind SpeedMPH,Gust SpeedMPH,PrecipitationIn,Events,Conditions,WindDirDegrees,DateUTC
12:56 AM,6.1,1.0,80,30.17,10.0,SW,8.1,-,N/A,,Clear,230,2012-12-20 07:56:00
1:56 AM,3.9,-0.0,84,30.18,10.0,SW,6.9,-,N/A,,Clear,220,2012-12-20 08:56:00
2:56 AM,9.0,3.9,80,30.17,10.0,WSW,6.9,-,N/A,,Clear,250,2012-12-20 09:56:00
3:56 AM,5.0,-0.0,80,30.17,10.0,West,6.9,-,N/A,,Clear,260,2012-12-20 10:56:00
4:56 AM,6.1,-0.0,76,30.17,10.0,West,4.6,-,N/A,,Clear,260,2012-12-20 11:56:00
5:56 AM,5.0,-0.9,76,30.19,10.0,SW,5.8,-,N/A,,Clear,230,2012-12-20 12:56:00
6:56 AM,5.0,-2.0,73,30.19,10.0,WSW,3.5,-,N/A,,Clear,240,2012-12-20 13:56:00
7:56 AM,5.0,-0.9,76,30.19,10.0,SSW,4.6,-,N/A,,Scattered Clouds,210,2012-12-20 14:56:00
8:56 AM,12.0,6.1,77,30.19,10.0,SW,6.9,-,N/A,,Clear,230,2012-12-20 15:56:00
9:56 AM,17.1,9.0,71,30.20,10.0,SW,6.9,-,N/A,,Partly Cloudy,230,2012-12-20 16:56:00
10:56 AM,21.0,9.0,60,30.16,10.0,WSW,4.6,-,N/A,,Partly Cloudy,240,2012-12-20 17:56:00
11:56 AM,23.0,10.0,58,30.15,10.0,WSW,8.1,-,N/A,,Clear,250,2012-12-20 18:56:00
1:56 PM,27.0,12.0,53,30.13,10.0,NW,3.5,-,N/A,,Clear,310,2012-12-20 20:56:00
2:56 PM,25.0,12.0,58,30.13,10.0,Calm,Calm,-,N/A,,Clear,0,2012-12-20 21:56:00
3:56 PM,19.9,10.0,65,30.14,10.0,South,3.5,-,N/A,,Clear,170,2012-12-20 22:56:00
4:56 PM,16.0,7.0,68,30.15,10.0,SSW,4.6,-,N/A,,Clear,200,2012-12-20 23:56:00
5:56 PM,12.0,5.0,73,30.17,10.0,South,4.6,-,N/A,,Clear,180,2012-12-21 00:56:00
6:56 PM,12.0,5.0,73,30.16,10.0,SSE,6.9,-,N/A,,Clear,160,2012-12-21 01:56:00
7:56 PM,10.0,3.9,76,30.17,10.0,South,6.9,-,N/A,,Clear,180,2012-12-21 02:56:00
8:56 PM,12.0,5.0,73,30.16,10.0,South,9.2,-,N/A,,Clear,170,2012-12-21 03:56:00
9:56 PM,16.0,8.1,71,30.13,10.0,South,12.7,-,N/A,,Clear,170,2012-12-21 04:56:00
10:56 PM,17.1,9.0,71,30.12,10.0,SSE,10.4,-,N/A,,Clear,160,2012-12-21 05:56:00
11:56 PM,16.0,8.1,71,30.12,10.0,South,11.5,-,N/A,,Clear,180,2012-12-21 06:56:00